Weather History for Athens Eleftherios, Greece

Change the Weather History Date:

Wednesday, November 20, 2013

  Actual Average (LGEL) Record (LGEL)
Temperature  
Mean Temperature 62 °F -  
Max Temperature 69 °F 63 °F 71 °F (2010)
Min Temperature 55 °F 48 °F 41 °F (2005)
Degree Days  
Heating Degree Days 3    
Growing Degree Days 12 (Base 50)    
Moisture  
Dew Point 56 °F    
Average Humidity 77    
Maximum Humidity 88    
Minimum Humidity 64    
Precipitation  
Precipitation 0.00 in - - ()
Sea Level Pressure  
Sea Level Pressure 29.95 in    
Wind  
Wind Speed 5 mph ()    
Max Wind Speed 20 mph    
Max Gust Speed 23 mph    
Visibility 5.9 miles    
Events Rain , Thunderstorm    
Averages and records for this station are not official NWS values.
T = Trace of Precipitation, MM = Missing Value Source: Averaged Metar Reports

Daily Weather History Graph

Daily Weather History Graph

Search for Another Location

Airport:

Trip Planner

Search our weather history database for the weather conditions in past years. The results will help you decide how hot, cold, wet, or windy it might be!

Date:

Astronomy

Nov. 20, 2013 Rise Set
Actual Time 7:10 AM EET 5:09 PM EET
Civil Twilight 6:41 AM EET 5:37 PM EET
Nautical Twilight 6:09 AM EET 6:09 PM EET
Astronomical Twilight 5:38 AM EET 6:41 PM EET
Moon 7:35 PM EET (11/20) 9:21 AM EET (11/20)
Length of Visible Light 10h 56m
Length of Day
9h 59m
Waning Gibbous, 93% of the Moon is Illuminated
Nov 20
Waning Gibbous
Nov 25
Last Quarter
Dec 3
New
Dec 9
First Quarter
Dec 17
Full

Hourly Weather History & Observations

Time (EET) Temp. Dew Point Humidity Pressure Visibility Wind Dir Wind Speed Gust Speed Precip Events Conditions
12:20 AM 55.4 °F 48.2 °F 77% 30.04 in 6.2 mi Variable 1.2 mph - N/A   Scattered Clouds
12:50 AM 57.2 °F 50.0 °F 77% 30.04 in 6.2 mi Variable 2.3 mph - N/A   Mostly Cloudy
1:20 AM 57.2 °F 51.8 °F 82% 30.04 in 6.2 mi Variable 1.2 mph - N/A   Mostly Cloudy
1:50 AM 59.0 °F 51.8 °F 77% 30.04 in 6.2 mi Variable 2.3 mph - N/A   Mostly Cloudy
2:20 AM 60.8 °F 53.6 °F 77% 30.04 in 6.2 mi Calm Calm - N/A   Mostly Cloudy
2:50 AM 62.6 °F 53.6 °F 72% 30.01 in 6.2 mi Calm Calm - N/A   Mostly Cloudy
3:20 AM 60.8 °F 53.6 °F 77% 30.01 in 6.2 mi Variable 3.5 mph - N/A   Mostly Cloudy
3:50 AM 60.8 °F 55.4 °F 82% 30.01 in 6.2 mi South 4.6 mph - N/A   Mostly Cloudy
4:20 AM 60.8 °F 55.4 °F 82% 30.01 in 6.2 mi Variable 2.3 mph - N/A   Mostly Cloudy
4:50 AM 60.8 °F 55.4 °F 82% 29.98 in 6.2 mi North 3.5 mph - N/A   Mostly Cloudy
5:20 AM 62.6 °F 55.4 °F 77% 29.98 in 6.2 mi SSE 6.9 mph - N/A   Mostly Cloudy
5:50 AM 62.6 °F 57.2 °F 82% 29.98 in 6.2 mi Variable 2.3 mph - N/A   Mostly Cloudy
6:20 AM 62.6 °F 55.4 °F 77% 29.98 in 6.2 mi NNW 3.5 mph - N/A   Mostly Cloudy
6:50 AM 62.6 °F 55.4 °F 77% 29.95 in 6.2 mi SE 8.1 mph - N/A Rain Light Rain
7:20 AM 62.6 °F 57.2 °F 82% 29.95 in 6.2 mi SE 8.1 mph - N/A Rain Light Rain
7:50 AM 62.6 °F 57.2 °F 82% 29.95 in 5.0 mi SE 8.1 mph - N/A Rain , Thunderstorm Light Thunderstorms and Rain
8:20 AM 62.6 °F 57.2 °F 82% 29.98 in 3.7 mi Variable 1.2 mph - N/A Rain , Thunderstorm Light Thunderstorms and Rain
8:50 AM 62.6 °F 57.2 °F 82% 29.98 in 3.7 mi Variable 1.2 mph - N/A Rain , Thunderstorm Thunderstorms and Rain
9:20 AM 59.0 °F 53.6 °F 82% 29.95 in 3.7 mi SE 9.2 mph - N/A Rain , Thunderstorm Light Thunderstorms and Rain
9:50 AM 59.0 °F 53.6 °F 82% 29.98 in 3.7 mi SSW 13.8 mph - N/A Rain , Thunderstorm Light Thunderstorms and Rain
10:20 AM 59.0 °F 55.4 °F 88% 29.98 in 5.0 mi SW 4.6 mph - N/A Rain Light Rain
10:50 AM 60.8 °F 57.2 °F 88% 29.98 in 6.2 mi Variable 3.5 mph - N/A Rain Light Rain
11:20 AM 60.8 °F 57.2 °F 88% 29.98 in 6.2 mi Variable 2.3 mph - N/A   Mostly Cloudy
11:50 AM 62.6 °F 57.2 °F 82% 29.95 in 6.2 mi Variable 3.5 mph - N/A   Mostly Cloudy
12:20 PM 64.4 °F 59.0 °F 83% 29.95 in 6.2 mi Variable 2.3 mph - N/A   Mostly Cloudy
12:50 PM 66.2 °F 59.0 °F 78% 29.95 in 6.2 mi SE 4.6 mph - N/A   Mostly Cloudy
1:20 PM 68.0 °F 59.0 °F 73% 29.92 in 6.2 mi SSE 9.2 mph 23.0 mph N/A   Scattered Clouds
1:50 PM 69.8 °F 57.2 °F 64% 29.92 in 6.2 mi SSW 19.6 mph - N/A   Scattered Clouds
2:20 PM 69.8 °F 59.0 °F 68% 29.92 in 6.2 mi South 17.3 mph - N/A   Scattered Clouds
2:50 PM 68.0 °F 59.0 °F 73% 29.92 in 6.2 mi SSW 17.3 mph - N/A   Scattered Clouds
3:20 PM 68.0 °F 59.0 °F 73% 29.89 in 6.2 mi SSW 17.3 mph - N/A   Scattered Clouds
3:50 PM 68.0 °F 59.0 °F 73% 29.89 in 6.2 mi South 18.4 mph - N/A   Scattered Clouds
4:20 PM 68.0 °F 59.0 °F 73% 29.89 in 6.2 mi SSW 17.3 mph - N/A   Scattered Clouds
4:50 PM 66.2 °F 57.2 °F 73% 29.89 in 6.2 mi South 15.0 mph - N/A   Scattered Clouds
5:20 PM 66.2 °F 55.4 °F 68% 29.89 in 6.2 mi South 11.5 mph - N/A   Partly Cloudy
5:50 PM 64.4 °F 55.4 °F 73% 29.89 in 6.2 mi South 13.8 mph - N/A   Partly Cloudy
6:20 PM 64.4 °F 55.4 °F 73% 29.89 in 6.2 mi South 12.7 mph - N/A   Partly Cloudy
6:50 PM 62.6 °F 55.4 °F 77% 29.92 in 6.2 mi South 11.5 mph - N/A   Partly Cloudy
7:20 PM 64.4 °F 55.4 °F 73% 29.92 in 6.2 mi South 9.2 mph - N/A   Partly Cloudy
7:50 PM 64.4 °F 55.4 °F 73% 29.92 in 6.2 mi South 12.7 mph - N/A   Partly Cloudy
8:20 PM 64.4 °F 55.4 °F 73% 29.92 in 6.2 mi South 8.1 mph - N/A   Mostly Cloudy
8:50 PM 66.2 °F 55.4 °F 68% 29.92 in 6.2 mi South 11.5 mph - N/A   Mostly Cloudy
9:20 PM 64.4 °F 55.4 °F 73% 29.92 in 6.2 mi SSW 9.2 mph - N/A   Mostly Cloudy
9:50 PM 62.6 °F 53.6 °F 72% 29.92 in 6.2 mi South 8.1 mph - N/A   Mostly Cloudy
10:20 PM 62.6 °F 53.6 °F 72% 29.92 in 6.2 mi SW 5.8 mph - N/A   Scattered Clouds
10:50 PM 62.6 °F 53.6 °F 72% 29.92 in 6.2 mi Variable 3.5 mph - N/A   Mostly Cloudy
11:20 PM 62.6 °F 55.4 °F 77% 29.92 in 6.2 mi South 4.6 mph - N/A   Mostly Cloudy
11:50 PM 64.4 °F 55.4 °F 73% 29.92 in 6.2 mi SSW 5.8 mph - N/A   Mostly Cloudy